SWR65 KMIA-LSZH

Flight info

Callsign SWR65
Flight time N/A
Altitude 33000
Route FOLZZ3 SUMRS/M083F330 M327 JIMAC/M083F350 DCT BALOO DCT 36N060W 40N050W 42N040W 45N030W/M083F370 4630N02000W 47N015W DCT ETIKI DCT REGHI/N0477F370 DCT OZNOH/N0478F380 DCT BULOX DCT TABOV/N0477F370 DCT RESMI DCT TEPRI DCT POGZI DCT GELTA DCT MANAG DCT PEVIT DCT BLM
Aircraft B77W/H-SDE1E2E3FGHIJ2J3J4J5M1RWXY/LB1D1

Departure

Time 2026-05-05 20:51
Airport Miami International Airport (KMIA)

Arrival

Time N/A
Airport Zürich Airport (LSZH)
Time Latitude Longitude Altitude Speed Heading
2026-05-05 20:19 25.79009 -80.27400 21 ft 0 kts 51°
2026-05-05 20:37 25.79008 -80.27401 20 ft 2 kts 51°
2026-05-05 20:37 25.78993 -80.27422 24 ft 4 kts 51°
2026-05-05 20:38 25.78977 -80.27443 23 ft 4 kts 53°
2026-05-05 20:38 25.78969 -80.27467 25 ft 4 kts 105°
2026-05-05 20:38 25.78982 -80.27492 24 ft 4 kts 136°
2026-05-05 20:38 25.79003 -80.27509 21 ft 4 kts 162°
2026-05-05 20:39 25.79029 -80.27513 24 ft 4 kts 177°
2026-05-05 20:39 25.79049 -80.27514 23 ft 0 kts 177°
2026-05-05 20:42 25.79047 -80.27514 23 ft 1 kts 177°
2026-05-05 20:42 25.79032 -80.27513 23 ft 3 kts 177°
2026-05-05 20:42 25.79000 -80.27511 25 ft 8 kts 177°
2026-05-05 20:42 25.78934 -80.27518 20 ft 10 kts 206°
2026-05-05 20:43 25.78899 -80.27589 20 ft 12 kts 254°
2026-05-05 20:43 25.78881 -80.27685 20 ft 14 kts 265°
2026-05-05 20:43 25.78875 -80.27800 20 ft 16 kts 266°
2026-05-05 20:43 25.78872 -80.27926 23 ft 17 kts 278°
2026-05-05 20:44 25.78905 -80.28047 22 ft 16 kts 270°
2026-05-05 20:44 25.78892 -80.28181 22 ft 19 kts 265°
2026-05-05 20:44 25.78885 -80.28334 20 ft 21 kts 268°
2026-05-05 20:44 25.78879 -80.28502 20 ft 23 kts 268°
2026-05-05 20:45 25.78857 -80.28882 19 ft 26 kts 258°
2026-05-05 20:45 25.78821 -80.29073 19 ft 25 kts 266°
2026-05-05 20:45 25.78812 -80.29266 19 ft 25 kts 267°
2026-05-05 20:46 25.78803 -80.29460 20 ft 25 kts 267°
2026-05-05 20:46 25.78797 -80.29653 21 ft 25 kts 268°
2026-05-05 20:46 25.78789 -80.29846 20 ft 25 kts 267°
2026-05-05 20:46 25.78780 -80.30039 20 ft 25 kts 266°
2026-05-05 20:47 25.78772 -80.30233 20 ft 25 kts 268°
2026-05-05 20:47 25.78764 -80.30425 19 ft 24 kts 268°
2026-05-05 20:47 25.78812 -80.30558 19 ft 18 kts 322°
2026-05-05 20:47 25.78836 -80.30685 19 ft 18 kts 267°
2026-05-05 20:48 25.78830 -80.30821 19 ft 18 kts 267°
2026-05-05 20:48 25.78824 -80.30958 19 ft 18 kts 267°
2026-05-05 20:48 25.78819 -80.31094 19 ft 18 kts 267°
2026-05-05 20:48 25.78814 -80.31230 19 ft 18 kts 267°
2026-05-05 20:49 25.78808 -80.31369 19 ft 19 kts 267°
2026-05-05 20:49 25.78787 -80.31488 19 ft 13 kts 223°
2026-05-05 20:49 25.78729 -80.31486 19 ft 9 kts 171°
2026-05-05 20:49 25.78646 -80.31477 19 ft 15 kts 176°
2026-05-05 20:50 25.78613 -80.31433 19 ft 8 kts 91°
2026-05-05 20:50 25.78613 -80.31426 19 ft 0 kts 86°
2026-05-05 20:50 25.78622 -80.31258 20 ft 57 kts 87°
2026-05-05 20:50 25.78648 -80.30565 20 ft 124 kts 87°
2026-05-05 20:51 25.78699 -80.29386 23 ft 179 kts 87°
2026-05-05 20:51 25.78760 -80.27874 180 ft 206 kts 88°
2026-05-05 20:51 25.78620 -80.26278 727 ft 210 kts 101°
2026-05-05 20:51 25.78302 -80.24654 1238 ft 223 kts 103°
2026-05-05 20:52 25.77939 -80.22978 1915 ft 225 kts 102°
2026-05-05 20:52 25.77563 -80.21260 2456 ft 233 kts 102°
2026-05-05 20:52 25.77174 -80.19484 3000 ft 242 kts 103°
2026-05-05 20:52 25.76699 -80.17640 3343 ft 259 kts 114°
2026-05-05 20:53 25.75799 -80.15854 3715 ft 272 kts 121°
2026-05-05 20:53 25.74840 -80.14020 4364 ft 277 kts 119°
2026-05-05 20:53 25.74186 -80.12012 4900 ft 283 kts 92°
2026-05-05 20:53 25.74508 -80.09967 5507 ft 282 kts 61°
2026-05-05 20:54 25.75646 -80.08224 6154 ft 281 kts 46°
2026-05-05 20:54 25.76956 -80.06572 6749 ft 288 kts 47°
2026-05-05 20:54 25.78282 -80.04895 7413 ft 291 kts 46°
2026-05-05 20:54 25.79628 -80.03199 8071 ft 295 kts 46°
2026-05-05 20:55 25.80994 -80.01479 8720 ft 300 kts 46°
2026-05-05 20:55 25.82382 -79.99728 9345 ft 304 kts 46°
2026-05-05 20:55 25.83785 -79.97954 10004 ft 308 kts 46°
2026-05-05 20:55 25.85218 -79.96141 10474 ft 319 kts 46°
2026-05-05 20:56 25.86736 -79.94220 10619 ft 342 kts 46°
2026-05-05 20:56 25.88351 -79.92173 10799 ft 363 kts 46°
2026-05-05 20:56 25.90063 -79.90000 10971 ft 384 kts 46°
2026-05-05 20:56 25.91843 -79.87733 11438 ft 395 kts 46°
2026-05-05 20:57 25.93664 -79.85412 11960 ft 401 kts 46°
2026-05-05 20:57 25.95502 -79.83065 12013 ft 404 kts 46°
2026-05-05 20:57 25.97344 -79.80713 12021 ft 402 kts 46°
2026-05-05 20:57 25.99179 -79.78369 12015 ft 401 kts 46°
2026-05-05 20:58 26.01009 -79.76033 12018 ft 402 kts 46°
2026-05-05 20:58 26.02844 -79.73689 12021 ft 402 kts 46°
2026-05-05 20:58 26.04684 -79.71338 12022 ft 403 kts 46°
2026-05-05 20:58 26.06524 -79.68985 12024 ft 404 kts 46°
2026-05-05 20:59 26.08368 -79.66628 12019 ft 404 kts 46°
2026-05-05 20:59 26.10213 -79.64267 12022 ft 404 kts 46°
2026-05-05 20:59 26.11992 -79.61841 12019 ft 405 kts 51°
2026-05-05 20:59 26.13629 -79.59289 12021 ft 406 kts 53°
2026-05-05 21:00 26.15197 -79.56728 12023 ft 406 kts 53°
2026-05-05 21:00 26.16777 -79.54146 12014 ft 399 kts 53°
2026-05-05 21:00 26.18324 -79.51645 12012 ft 384 kts 53°
2026-05-05 21:00 26.19823 -79.49250 12003 ft 370 kts 52°
2026-05-05 21:01 26.21271 -79.46953 12001 ft 355 kts 52°
2026-05-05 21:01 26.22670 -79.44744 12004 ft 347 kts 52°
2026-05-05 21:01 26.24110 -79.42478 12046 ft 370 kts 52°
2026-05-05 21:01 26.25636 -79.40075 12042 ft 386 kts 52°
2026-05-05 21:02 26.27189 -79.37621 12032 ft 388 kts 52°
2026-05-05 21:02 26.28735 -79.35173 12020 ft 384 kts 53°
2026-05-05 21:02 26.29985 -79.32623 12003 ft 370 kts 71°
2026-05-05 21:02 26.30380 -79.29855 12008 ft 356 kts 92°
2026-05-05 21:03 26.29889 -79.27212 12024 ft 352 kts 115°
2026-05-05 21:03 26.28537 -79.24865 12044 ft 372 kts 136°
2026-05-05 21:03 26.26457 -79.23093 12034 ft 381 kts 156°
2026-05-05 21:03 26.23954 -79.22233 12027 ft 375 kts 178°
2026-05-05 21:04 26.21404 -79.22413 12012 ft 364 kts 198°
2026-05-05 21:04 26.19139 -79.23548 12017 ft 354 kts 218°
2026-05-05 21:04 26.17376 -79.25405 12024 ft 347 kts 236°
2026-05-05 21:04 26.16211 -79.27719 12014 ft 340 kts 251°
2026-05-05 21:05 26.15454 -79.30212 12027 ft 342 kts 253°
2026-05-05 21:05 26.14737 -79.32753 12034 ft 346 kts 254°
2026-05-05 21:05 26.14025 -79.35318 12025 ft 347 kts 254°
2026-05-05 21:05 26.13310 -79.37880 12020 ft 346 kts 254°
2026-05-05 21:06 26.12592 -79.40432 12017 ft 346 kts 254°
2026-05-05 21:06 26.11868 -79.42981 12020 ft 345 kts 254°
2026-05-05 21:06 26.11142 -79.45520 12015 ft 345 kts 254°
2026-05-05 21:06 26.10422 -79.48025 12019 ft 344 kts 253°
2026-05-05 21:07 26.09691 -79.50560 12020 ft 344 kts 253°
2026-05-05 21:07 26.08958 -79.53094 12018 ft 344 kts 253°
2026-05-05 21:07 26.08225 -79.55627 12020 ft 344 kts 253°
2026-05-05 21:07 26.07490 -79.58160 12018 ft 344 kts 253°
2026-05-05 21:08 26.06754 -79.60695 12019 ft 345 kts 253°
2026-05-05 21:08 26.06016 -79.63236 12019 ft 345 kts 253°
2026-05-05 21:08 26.05278 -79.65773 12019 ft 345 kts 253°
2026-05-05 21:08 26.04539 -79.68316 12020 ft 346 kts 253°
2026-05-05 21:09 26.03797 -79.70862 12019 ft 346 kts 253°
2026-05-05 21:09 26.03056 -79.73407 12019 ft 346 kts 253°
2026-05-05 21:09 26.02313 -79.75955 12019 ft 347 kts 253°
2026-05-05 21:09 26.01570 -79.78502 12017 ft 347 kts 253°
2026-05-05 21:10 26.00825 -79.81051 12015 ft 347 kts 253°
2026-05-05 21:10 26.00083 -79.83592 12009 ft 340 kts 253°
2026-05-05 21:10 25.99382 -79.85979 11968 ft 309 kts 253°
2026-05-05 21:10 25.98748 -79.88136 11958 ft 278 kts 254°
2026-05-05 21:11 25.98177 -79.90081 11957 ft 254 kts 254°
2026-05-05 21:11 25.97649 -79.91883 11960 ft 237 kts 254°
2026-05-05 21:11 25.97134 -79.93648 12066 ft 244 kts 254°
2026-05-05 21:11 25.96610 -79.95443 12013 ft 243 kts 254°
2026-05-05 21:12 25.96093 -79.97207 11999 ft 237 kts 254°
2026-05-05 21:12 25.95584 -79.98944 11878 ft 239 kts 254°
2026-05-05 21:12 25.95065 -80.00717 11586 ft 241 kts 254°
2026-05-05 21:12 25.94547 -80.02485 11278 ft 240 kts 254°
2026-05-05 21:13 25.94205 -80.03648 11088 ft 238 kts 253°
2026-05-05 21:13 25.93699 -80.05363 10952 ft 228 kts 253°
2026-05-05 21:13 25.93210 -80.07020 10832 ft 226 kts 253°
2026-05-05 21:13 25.92719 -80.08693 10731 ft 229 kts 252°
2026-05-05 21:14 25.91922 -80.10226 10605 ft 236 kts 226°
2026-05-05 21:14 25.90541 -80.11265 10542 ft 245 kts 212°
2026-05-05 21:14 25.89017 -80.12139 10435 ft 247 kts 211°
2026-05-05 21:14 25.87497 -80.13003 10349 ft 241 kts 211°
2026-05-05 21:15 25.85992 -80.13861 10205 ft 250 kts 211°
2026-05-05 21:15 25.84398 -80.14776 10050 ft 264 kts 211°
2026-05-05 21:15 25.82768 -80.15711 9935 ft 266 kts 211°
2026-05-05 21:15 25.81111 -80.16662 9605 ft 269 kts 211°
2026-05-05 21:16 25.79455 -80.17614 9294 ft 267 kts 211°
2026-05-05 21:16 25.77810 -80.18562 8971 ft 265 kts 211°
2026-05-05 21:16 25.76204 -80.19488 8667 ft 263 kts 211°
2026-05-05 21:16 25.74589 -80.20418 8359 ft 260 kts 211°
2026-05-05 21:17 25.73088 -80.21469 8020 ft 250 kts 229°
2026-05-05 21:17 25.72201 -80.23110 7460 ft 253 kts 255°
2026-05-05 21:17 25.71790 -80.25021 6891 ft 260 kts 258°
2026-05-05 21:17 25.71378 -80.27022 6243 ft 272 kts 258°
2026-05-05 21:18 25.71083 -80.29078 5974 ft 264 kts 266°
2026-05-05 21:18 25.70999 -80.31048 5787 ft 248 kts 269°
2026-05-05 21:18 25.70948 -80.32927 5660 ft 240 kts 269°
2026-05-05 21:18 25.70890 -80.34752 5524 ft 236 kts 268°
2026-05-05 21:19 25.70820 -80.36572 5426 ft 234 kts 268°
2026-05-05 21:19 25.70744 -80.38343 5268 ft 227 kts 268°
2026-05-05 21:19 25.70663 -80.40087 4914 ft 227 kts 268°
2026-05-05 21:19 25.70581 -80.41840 4548 ft 227 kts 268°
2026-05-05 21:20 25.70497 -80.43589 4183 ft 228 kts 267°
2026-05-05 21:20 25.70393 -80.45340 3817 ft 228 kts 268°
2026-05-05 21:20 25.70294 -80.47096 3459 ft 228 kts 267°
2026-05-05 21:20 25.70181 -80.48858 3092 ft 229 kts 267°
2026-05-05 21:21 25.70169 -80.50572 2989 ft 219 kts 286°
2026-05-05 21:21 25.70862 -80.52016 3018 ft 211 kts 319°
2026-05-05 21:21 25.72137 -80.52738 3006 ft 207 kts 347°
2026-05-05 21:21 25.73555 -80.52992 3004 ft 207 kts 352°
2026-05-05 21:22 25.74985 -80.53114 2967 ft 205 kts
2026-05-05 21:22 25.76255 -80.52485 2991 ft 205 kts 43°
2026-05-05 21:22 25.77045 -80.51144 3012 ft 213 kts 62°
2026-05-05 21:22 25.77653 -80.49629 2984 ft 216 kts 73°
2026-05-05 21:23 25.77905 -80.48012 2907 ft 218 kts 83°
2026-05-05 21:23 25.78006 -80.46319 2613 ft 219 kts 85°
2026-05-05 21:23 25.78068 -80.44646 2316 ft 213 kts 87°
2026-05-05 21:23 25.78131 -80.43053 2049 ft 200 kts 87°
2026-05-05 21:24 25.78191 -80.41582 1815 ft 181 kts 86°
2026-05-05 21:24 25.78246 -80.40231 1599 ft 172 kts 86°
2026-05-05 21:24 25.78302 -80.38896 1389 ft 175 kts 85°
2026-05-05 21:24 25.78360 -80.37518 1116 ft 179 kts 87°
2026-05-05 21:25 25.78415 -80.36164 907 ft 170 kts 85°
2026-05-05 21:25 25.78467 -80.34907 723 ft 162 kts 85°
2026-05-05 21:25 25.78518 -80.33682 530 ft 159 kts 87°
2026-05-05 21:25 25.78575 -80.32455 250 ft 158 kts 89°
2026-05-05 21:26 25.78619 -80.31260 59 ft 153 kts 86°
2026-05-05 21:26 25.78669 -80.30148 20 ft 131 kts 87°
2026-05-05 21:26 25.78702 -80.29359 20 ft 69 kts 88°
2026-05-05 21:26 25.78716 -80.28964 19 ft 42 kts 87°
2026-05-05 21:27 25.78755 -80.28761 22 ft 25 kts 62°
2026-05-05 21:27 25.78856 -80.28641 19 ft 19 kts 55°
2026-05-05 21:27 25.78878 -80.28503 20 ft 19 kts 88°
2026-05-05 21:27 25.78884 -80.28360 20 ft 19 kts 87°
2026-05-05 21:28 25.78891 -80.28219 20 ft 19 kts 86°
2026-05-05 21:28 25.78904 -80.28080 23 ft 19 kts 84°
2026-05-05 21:28 25.78875 -80.27943 24 ft 19 kts 101°
2026-05-05 21:28 25.78875 -80.27802 20 ft 19 kts 88°
2026-05-05 21:29 25.78882 -80.27664 20 ft 19 kts 84°
2026-05-05 21:29 25.78910 -80.27536 20 ft 13 kts 56°
2026-05-05 21:29 25.78965 -80.27461 21 ft 12 kts 51°
2026-05-05 21:29 25.78997 -80.27415 20 ft 0 kts 51°
2026-05-05 21:30 25.79001 -80.27411 20 ft 1 kts 51°
2026-05-05 21:30 25.79006 -80.27403 20 ft 1 kts 51°
2026-05-05 21:30 25.79008 -80.27401 20 ft 1 kts 51°
2026-05-05 21:30 25.79009 -80.27400 20 ft 0 kts 51°